Simultaneous Nadir Overpasses (SNOs) Predictions

Prediction of SNOs between AURA and NPP Satellite Orbit:

Table of predicted SNOs for the next 14.0 days since TLE Epoch: 1/4/2015
Index Date (AURA) Time (AURA) Lat,Lon (AURA) SZA (AURA ) Date (NPP) Time (NPP) Lat,Lon (NPP) SZA (NPP ) Distance(km) Time Diff (sec)
1 01/06/2015 06:29:19 77.58, -30.45 117.19 01/06/2015 06:28:26 77.59, -30.41 117.22 1.04 53
2 01/06/2015 07:18:32 -78.21, 140.00 63.56 01/06/2015 07:18:56 -78.21, 140.04 63.59 0.94 24
3 01/08/2015 22:45:36 77.88, 86.74 116.56 01/08/2015 22:45:09 77.89, 86.82 116.57 1.79 27
4 01/08/2015 23:34:49 -78.49,-102.67 64.20 01/08/2015 23:35:39 -78.50,-102.58 64.26 2.10 50
5 01/11/2015 14:15:11 -69.85, 15.40 55.49 01/11/2015 14:13:57 -70.06, 14.30 55.21 47.91 74
6 01/11/2015 15:01:55 78.05,-156.55 116.02 01/11/2015 15:01:55 78.05,-156.55 116.02 0.14 0
7 01/11/2015 15:49:02 -81.82, 56.75 71.50 01/11/2015 15:50:16 -81.36, 56.68 71.73 50.82 74
8 01/14/2015 06:29:02 -77.59, 149.66 63.81 01/14/2015 06:28:12 -77.59, 149.62 63.76 0.93 50
9 01/14/2015 07:18:11 78.33, -39.32 115.30 01/14/2015 07:18:38 78.33, -39.27 115.26 1.46 27
10 01/16/2015 22:45:17 -77.84, -93.34 64.54 01/16/2015 22:44:55 -77.83, -93.42 64.51 2.09 22




NCC Satellite Simultaneous Nadir Overpasses (SNOs) Prediction Service
